TimeEDT,TemperatureF,Dew PointF,Humidity,Sea Level PressureIn,VisibilityMPH,Wind Direction,Wind SpeedMPH,Gust SpeedMPH,PrecipitationIn,Events,Conditions,WindDirDegrees,DateUTC
1:56 AM,43.0,39.9,89,29.75,6.0,SSE,10.4,-,0.00,,Mostly Cloudy,160,2013-03-16 05:56:00
2:56 AM,43.0,39.9,89,29.70,6.0,SSE,9.2,-,0.00,,Overcast,160,2013-03-16 06:56:00
3:56 AM,43.0,39.9,89,29.69,7.0,ESE,9.2,-,N/A,,Mostly Cloudy,120,2013-03-16 07:56:00
4:56 AM,43.0,39.9,89,29.67,6.0,SE,8.1,-,0.00,,Scattered Clouds,140,2013-03-16 08:56:00
5:56 AM,42.1,39.9,92,29.65,5.0,SE,10.4,-,N/A,,Scattered Clouds,140,2013-03-16 09:56:00
6:56 AM,41.0,39.0,93,29.65,4.0,SSE,6.9,-,N/A,,Mostly Cloudy,150,2013-03-16 10:56:00
7:56 AM,42.1,39.9,92,29.64,4.0,South,9.2,-,N/A,,Mostly Cloudy,170,2013-03-16 11:56:00
8:56 AM,44.1,42.1,93,29.63,4.0,South,4.6,-,N/A,,Mostly Cloudy,190,2013-03-16 12:56:00
9:56 AM,46.9,44.1,90,29.64,5.0,WSW,6.9,-,N/A,,Mostly Cloudy,240,2013-03-16 13:56:00
10:42 AM,44.6,42.8,93,29.65,2.5,NNW,8.1,-,N/A,,Mostly Cloudy,340,2013-03-16 14:42:00
10:56 AM,46.9,44.1,90,29.67,2.5,NW,9.2,-,N/A,,Overcast,320,2013-03-16 14:56:00
11:12 AM,46.4,42.8,87,29.67,3.0,NW,6.9,-,N/A,,Overcast,310,2013-03-16 15:12:00
11:45 AM,46.4,42.8,87,29.68,2.5,NW,11.5,-,N/A,,Overcast,310,2013-03-16 15:45:00
11:56 AM,46.9,43.0,86,29.70,2.5,WNW,12.7,-,N/A,,Overcast,300,2013-03-16 15:56:00
12:33 PM,48.2,42.8,82,29.72,2.5,WNW,12.7,-,N/A,,Haze,300,2013-03-16 16:33:00
12:47 PM,48.2,44.6,87,29.73,3.0,NW,16.1,-,N/A,,Overcast,310,2013-03-16 16:47:00
12:56 PM,48.0,43.0,83,29.75,3.0,NW,17.3,24.2,N/A,,Haze,320,2013-03-16 16:56:00
1:43 PM,44.6,41.0,87,29.78,3.0,NW,18.4,25.3,N/A,,Overcast,320,2013-03-16 17:43:00
1:56 PM,44.1,39.9,85,29.80,3.0,NW,18.4,25.3,N/A,,Overcast,310,2013-03-16 17:56:00
1:58 PM,44.6,39.2,81,29.79,2.0,NW,18.4,25.3,N/A,,Overcast,320,2013-03-16 17:58:00
2:49 PM,42.8,37.4,81,29.83,3.0,NW,17.3,-,N/A,,Overcast,310,2013-03-16 18:49:00
2:56 PM,41.0,37.9,89,29.85,3.0,NW,16.1,-,N/A,,Overcast,320,2013-03-16 18:56:00
3:56 PM,39.0,37.0,93,29.87,2.0,NNW,13.8,-,N/A,,Overcast,340,2013-03-16 19:56:00
4:47 PM,37.4,35.6,93,29.88,1.5,NNW,15.0,-,N/A,,Overcast,330,2013-03-16 20:47:00
4:56 PM,37.0,35.1,93,29.91,1.5,North,13.8,-,N/A,,Overcast,350,2013-03-16 20:56:00
5:39 PM,35.6,33.8,93,29.92,4.0,NNW,15.0,-,N/A,,Overcast,330,2013-03-16 21:39:00
5:56 PM,36.0,33.1,89,29.95,4.0,NNW,11.5,-,N/A,,Overcast,340,2013-03-16 21:56:00
6:56 PM,35.1,32.0,89,29.98,5.0,North,11.5,-,N/A,,Overcast,350,2013-03-16 22:56:00
7:48 PM,33.8,30.2,87,29.97,7.0,NNW,8.1,-,N/A,,Overcast,340,2013-03-16 23:48:00
7:56 PM,34.0,30.9,89,30.00,7.0,North,10.4,-,N/A,,Overcast,350,2013-03-16 23:56:00
8:56 PM,34.0,30.9,89,29.99,7.0,North,9.2,-,N/A,,Overcast,10,2013-03-17 00:56:00
9:56 PM,33.1,30.0,89,30.02,7.0,NNE,9.2,-,N/A,,Overcast,30,2013-03-17 01:56:00
10:44 PM,33.8,30.2,87,30.03,7.0,North,6.9,-,N/A,,Overcast,360,2013-03-17 02:44:00
10:56 PM,33.1,30.0,89,30.05,7.0,North,6.9,-,N/A,,Overcast,360,2013-03-17 02:56:00
11:39 PM,33.8,30.2,87,30.04,8.0,North,8.1,-,N/A,,Overcast,10,2013-03-17 03:39:00
11:56 PM,33.1,30.0,89,30.06,8.0,North,5.8,-,N/A,,Overcast,360,2013-03-17 03:56:00